This is the latest recevied weather packets stored in our database for station/object HB9TVK-13. If no packets are shown the sender has not sent any weather packets the latest 10 day(s).
| Time | Temp. | Humidity | Pressure | Rain* | Wind** | Luminosity | Snow |
|---|---|---|---|---|---|---|---|
| 1777889837 | 18.33° C | 56% | 1015.1 hPa | 0 mm | - | - | - |
| 1777889235 | 17.78° C | 57% | 1015.3 hPa | 0 mm | - | - | - |
| 1777888636 | 17.22° C | 57% | 1015.3 hPa | 0 mm | - | - | - |
| 1777888036 | 17.78° C | 59% | 1015.4 hPa | 0 mm | - | - | - |
| 1777887437 | 17.22° C | 59% | 1015.5 hPa | 0 mm | - | - | - |
| 1777886837 | 17.22° C | 62% | 1015.6 hPa | 0 mm | - | - | - |
| 1777886237 | 17.22° C | 63% | 1015.8 hPa | 0 mm | - | - | - |
| 1777885637 | 16.67° C | 65% | 1015.7 hPa | 0 mm | - | - | - |
| 1777885035 | 15.56° C | 74% | 1015.8 hPa | 0 mm | - | - | - |
| 1777884436 | 15.56° C | 79% | 1015.9 hPa | 0 mm | - | - | - |
| 1777883836 | 15° C | 80% | 1016 hPa | 0 mm | - | - | - |
| 1777883237 | 14.44° C | 81% | 1016.1 hPa | 0 mm | - | - | - |
| 1777882637 | 14.44° C | 82% | 1016.1 hPa | 0 mm | - | - | - |
| 1777882038 | 13.89° C | 84% | 1016.2 hPa | 0 mm | - | - | - |
| 1777881437 | 13.33° C | 85% | 1016.1 hPa | 0 mm | - | - | - |
| 1777880835 | 13.33° C | 86% | 1016.1 hPa | 0 mm | - | - | - |
| 1777880236 | 13.33° C | 86% | 1016.1 hPa | 0 mm | - | - | - |
| 1777879636 | 13.33° C | 86% | 1016 hPa | 0 mm | - | - | - |
| 1777879036 | 12.78° C | 86% | 1016 hPa | 0 mm | - | - | - |
| 1777878437 | 12.78° C | 86% | 1016.1 hPa | 0 mm | - | - | - |
| 1777877837 | 12.22° C | 85% | 1016.1 hPa | 0 mm | - | - | - |
| 1777877238 | 12.22° C | 87% | 1016.1 hPa | 0 mm | - | - | - |
| 1777876636 | 12.22° C | 87% | 1016.1 hPa | 0 mm | - | - | - |
| 1777876036 | 11.67° C | 87% | 1016.1 hPa | 0 mm | - | - | - |
| 1777875436 | 11.67° C | 87% | 1016 hPa | 0 mm | - | - | - |
* Rain latest hour (hover to see other rain measurements)
** Current wind speed in m/s (hover to see current wind gust speed)